Location: Bemmer
(51.5498°N, 5.6249°E)
Time: 18:01:36
(UTC+00:00)

Cosmos 2360 Rocket - Pass Details

Date: 03 March 2021
Orbit: 832 x 846 km, 71.0° (Epoch: 13 April)

Event Time Altitude Azimuth Distance (km) Brightness Sun altitude
Rises 20:22:14 0° 238° (WSW) 3,386 5.7 -28.1°
Reaches altitude 10° 20:24:52 10° 247° (WSW) 2,457 5.0 -28.5°
Maximum altitude 20:30:03 37° 314° (NW) 1,302 3.6 -29.2°
Drops below altitude 10° 20:35:18 10° 21° (NNE) 2,477 4.7 -29.9°
Sets 20:37:57 0° 29° (NNE) 3,417 5.4 -30.2°
